DW5225 Weather Reports


Display with metric or nautical units.
time (UTC)temp
F
wind
direction
speed
MPH
gust
MPH
rain 1hr
in
rain 24hr
in
rain mn
in
humidity
%
barometer
mb
20260508074544 50 0 0.0 0.0 0.00 0.07 0.00 80 1016.7
20260508073040 50 0 0.0 0.0 0.00 0.07 0.00 80 1016.6
20260508071547 49 0 0.0 0.0 0.00 0.07 0.00 80 1016.8
20260508070044 48 0 0.0 0.0 0.00 0.07 0.00 83 1016.9
20260508064543 47 0 0.0 0.0 0.00 0.07 0.00 87 1017.1
20260508063041 46 0 0.0 0.0 0.00 0.07 0.00 92 1017.0
20260508061540 44 0 0.0 0.0 0.00 0.07 0.00 93 1017.0
20260508060040 42 0 0.0 0.0 0.00 0.07 0.00 92 1016.8
20260508054537 42 0 0.0 0.0 0.00 0.07 0.00 92 1016.7
20260508053109 42 0 0.0 0.0 0.00 0.07 0.00 92 1016.6
20260508051545 41 0 0.0 0.0 0.00 0.07 0.00 92 1016.7
20260508050042 41 0 0.0 0.0 0.00 0.07 0.00 92 1016.6
20260508044540 41 0 0.0 0.0 0.00 0.07 0.00 92 1016.6
20260508043040 42 0 0.0 0.0 0.00 0.07 0.00 92 1016.4
20260508041610 42 0 0.0 0.0 0.00 0.07 0.00 92 1016.4
20260508040104 43 0 0.0 0.0 0.00 0.07 0.00 92 1016.3
20260508034541 43 0 0.0 0.0 0.00 0.07 0.00 92 1016.4
20260508033040 43 0 0.0 0.0 0.00 0.07 0.00 92 1016.3
20260508031540 43 0 0.0 0.0 0.00 0.07 0.00 92 1016.3
20260508030044 43 0 0.0 0.0 0.00 0.07 0.00 92 1016.4
20260508024546 43 0 0.0 0.0 0.00 0.07 0.00 92 1016.3
20260508023041 43 0 0.0 0.0 0.00 0.07 0.00 92 1016.4
20260508021547 42 0 0.0 0.0 0.00 0.07 0.00 92 1016.5
20260508020045 42 0 0.0 0.0 0.00 0.07 0.00 91 1016.4
20260508014541 43 0 0.0 0.0 0.00 0.07 0.00 91 1016.4
20260508013040 43 0 0.0 0.0 0.00 0.06 0.00 91 1016.4
20260508011551 43 0 0.0 0.0 0.00 0.06 0.00 91 1016.4
20260508010039 43 0 0.0 0.0 0.00 0.06 0.00 91 1016.5
20260508004543 43 0 0.0 0.0 0.00 0.06 0.00 91 1016.6
20260508003041 43 0 0.0 0.0 0.00 0.06 0.00 90 1016.6
20260508001542 44 0 0.0 0.0 0.00 0.06 0.00 90 1016.6
20260508000044 45 0 0.0 0.0 0.00 0.06 0.00 91 1016.7
20260507234541 44 0 0.0 0.0 0.00 0.06 0.00 90 1016.7
20260507233054 44 0 0.0 0.0 0.00 0.06 0.00 89 1016.8
20260507231540 44 0 0.0 0.0 0.00 0.06 0.00 89 1017.1
20260507230040 44 0 0.0 0.0 0.00 0.06 0.00 89 1017.0
20260507224553 45 0 0.0 0.0 0.00 0.06 0.00 89 1017.0
20260507223042 45 0 0.0 0.0 0.00 0.06 0.00 89 1017.0
20260507221540 45 0 0.0 0.0 0.00 0.06 0.00 89 1016.9
20260507220039 46 0 0.0 0.0 0.00 0.06 0.00 89 1017.0
20260507214541 46 0 0.0 0.0 0.00 0.06 0.06 89 1016.8
20260507213041 46 0 0.0 0.0 0.00 0.06 0.06 88 1016.6
20260507211542 46 0 0.0 0.0 0.00 0.06 0.06 88 1016.8
20260507210049 46 0 0.0 0.0 0.00 0.06 0.06 88 1016.9
20260507204540 47 0 0.0 0.0 0.00 0.06 0.06 89 1016.9
20260507203043 47 0 0.0 0.0 0.00 0.06 0.06 88 1016.9
20260507201540 47 0 0.0 0.0 0.00 0.06 0.06 89 1016.8
20260507200038 47 0 0.0 0.0 0.00 0.06 0.06 89 1016.6
20260507194612 47 0 0.0 0.0 0.00 0.06 0.06 89 1016.5
20260507193043 47 0 0.0 0.0 0.03 0.06 0.06 88 1016.4
20260507191540 47 0 0.0 0.0 0.05 0.06 0.06 88 1015.9
20260507190049 47 0 0.0 0.0 0.05 0.06 0.06 87 1015.6
20260507184540 48 0 0.0 0.0 0.05 0.05 0.05 85 1015.5
20260507183047 48 0 0.0 0.0 0.02 0.02 0.02 84 1015.5
20260507181551 50 0 0.0 0.0 0.00 0.00 0.00 79 1015.3
20260507180042 52 0 0.0 0.0 0.00 0.00 0.00 73 1015.0
20260507174552 52 0 0.0 0.0 0.00 0.00 0.00 71 1014.6
20260507173103 53 0 0.0 0.0 0.00 0.00 0.00 69 1014.4
20260507171545 53 0 0.0 0.0 0.00 0.00 0.00 69 1014.2
20260507170039 54 0 0.0 0.0 0.00 0.00 0.00 65 1014.0
20260507164549 55 0 0.0 0.0 0.00 0.00 0.00 63 1014.0
20260507163041 56 0 0.0 0.0 0.00 0.00 0.00 63 1013.7
20260507161556 56 0 0.0 0.0 0.00 0.00 0.00 62 1013.6
20260507160042 57 0 0.0 0.0 0.00 0.00 0.00 59 1013.5
20260507154542 57 0 0.0 0.0 0.00 0.00 0.00 57 1013.4
20260507153038 56 0 0.0 0.0 0.00 0.00 0.00 60 1013.4
20260507151542 55 0 0.0 0.0 0.00 0.00 0.00 61 1013.4
20260507150042 56 0 0.0 0.0 0.00 0.00 0.00 59 1013.4
20260507144542 56 0 0.0 0.0 0.00 0.00 0.00 57 1013.2
20260507143040 57 0 0.0 0.0 0.00 0.00 0.00 54 1013.2
20260507141545 57 0 0.0 0.0 0.00 0.00 0.00 53 1013.2
20260507140038 57 0 0.0 0.0 0.00 0.00 0.00 55 1013.0
20260507134544 57 0 0.0 0.0 0.00 0.00 0.00 54 1013.1
20260507133042 57 0 0.0 0.0 0.00 0.00 0.00 56 1013.0
20260507131539 57 0 0.0 0.0 0.00 0.00 0.00 58 1013.0
20260507130039 55 0 0.0 0.0 0.00 0.00 0.00 64 1013.1
20260507124538 54 0 0.0 0.0 0.00 0.00 0.00 62 1013.4
20260507123045 56 0 0.0 0.0 0.00 0.00 0.00 57 1013.1
20260507121544 58 0 0.0 0.0 0.00 0.00 0.00 55 1013.0
20260507120046 58 0 0.0 0.0 0.00 0.00 0.00 54 1012.8
20260507114542 57 0 0.0 0.0 0.00 0.00 0.00 56 1012.8
20260507113046 56 0 0.0 0.0 0.00 0.00 0.00 57 1013.0
20260507111547 57 0 0.0 0.0 0.00 0.00 0.00 55 1013.0
20260507110046 56 0 0.0 0.0 0.00 0.00 0.00 57 1013.0
20260507104542 56 0 0.0 0.0 0.00 0.00 0.00 58 1013.1
20260507103041 55 0 0.0 0.0 0.00 0.00 0.00 62 1013.2
20260507101541 54 0 0.0 0.0 0.00 0.00 0.00 68 1013.4
20260507100042 53 0 0.0 0.0 0.00 0.00 0.00 70 1013.4
20260507094537 53 0 0.0 0.0 0.00 0.00 0.00 71 1013.4
20260507093036 53 0 0.0 0.0 0.00 0.00 0.00 73 1013.4
20260507091545 53 0 0.0 0.0 0.00 0.00 0.00 66 1013.4
20260507090044 52 0 0.0 0.0 0.00 0.00 0.00 74 1013.4
20260507084541 50 0 0.0 0.0 0.00 0.00 0.00 78 1013.6
20260507083040 49 0 0.0 0.0 0.00 0.00 0.00 80 1013.5
20260507081544 48 0 0.0 0.0 0.00 0.00 0.00 81 1013.5
20260507080044 48 0 0.0 0.0 0.00 0.00 0.00 81 1013.5